Weather in Tivat

Montenegro     42°25′59″N   18°41′51″E
temp.,
°C
wind,
m/s
gust,
m/s
humid.,
%
clouds,
%
prec.,
mm/h
press.,
hPa
HPBL,
m
15 may, sat
sat1523:00+9ene2288100 0.1 101323
02:00+10ese1497100 2.1 1012209
05:00+10s2499100 12.3 1010280
08:00+9ene2398100 23.7 1010179
11:00+10ene2496100 2.6 1011281
14:00+9ene2496100 8.3 1011312
17:00+9ne2395100 0.9 1011151
20:00+9ne1195100 1.1 101235
16 may, sun
sun1623:00+8ne119461 0.1 101315
02:00+7nne229441 0.1 101315
05:00+7nne2294100 0.0 101318
08:00+11sw118698 0.0 1013358
11:00+14sw337567 0.2 1013828
14:00+16sw226716 0.8 1012889
17:00+15sw2169100 0.2 1012583
20:00+12ene1185100 0.3 101215
17 may, mon
mon1723:00+11e1188100 0.0 101317
02:00+10ene118493 0.0 101219
05:00+10ene218219 0.0 101218
08:00+15sse24665 0.0 1012498
11:00+17s45621 0.0 10121036
14:00+18s44595 0.0 10121033
17:00+18s336113 0.0 1011803
20:00+13e2288100 0.0 101218
18 may, tue
tue1823:00+12ene32883 0.0 101235
02:00+12ne228568 0.0 101242
05:00+11ene2287100 0.0 101237
08:00+14ene228398 0.0 1013351
11:00+18sse226849 0.2 1013998
14:00+18ssw347538 1.1 1013903
17:00+18s33710 0.2 1012595
20:00+12sse11976 0.5 101121
19 may, wed
wed1923:00+10nne119245 0.9 101119
02:00+10wsw129650 2.5 101138
05:00+7n33923 0.8 101354
08:00+11sw22793 0.8 1015353
11:00+14sw336732 0.5 10151107
14:00+14wsw326997 1.7 10141101
17:00+11nne238498 1.2 1016370
20:00+7nne33912 1.3 101852